Location: Beaurevoir
(49.9971°N, 3.3085°E)
Time: 06:36:19
(UTC+00:00)

Cosmos 540 Rocket - Pass Details

Date: 23 May 2024
Orbit: 737 x 751 km, 74.1° (Epoch: 19 June)

Event Time Altitude Azimuth Distance (km) Brightness Sun altitude
Rises 01:07:32 0° 331° (NNW) 3,212 7.3 -16.9°
Reaches altitude 10° 01:10:00 10° 325° (NW) 2,284 6.4 -16.8°
Maximum altitude 01:14:51 42° 256° (WSW) 1,072 4.0 -16.5°
Enters shadow 01:16:59 28° 206° (SSW) 1,391 4.2 -16.4°
